Hourly Data Report for February 09, 2020

All times are specified in Local Standard Time (LST). Add 1 hour to adjust for Daylight Saving Time where and when it is observed.

OTTAWA INTL A
ONTARIO
Current Station Operator: NAVCAN

45°19'00.000" N
75°40'00.000" W
114.90 m
6106001
71628
YOW

Download Data

Hourly Data (February 2020)
Hourly Data Report for February 9, 2020
TIME Temp Definition
°C
Dew Point Definition
°C
Rel Hum Definition
%
Wind Dir Definition
10's deg

Wind Spd Definition
km/h
Visibility Definition
km
Stn Press Definition
kPa
Hmdx Definition


Wind Chill Definition


Weather Definition


00:00 -20.6 -23.6 77 36 1 24.1 101.58   -21 LegendNANA
01:00 -22.2 -25.3 76 14 3 24.1 101.58   -25 Clear
02:00 -21.9 -24.8 78 5 5 24.1 101.61   -26 LegendNANA
03:00 -22.8 -25.1 81 9 5 24.1 101.64   -27 LegendNANA
04:00 -22.7 -25.4 80 0 1 24.1 101.74   -24 Clear
05:00 -23.7 -26.4 79 4 5 24.1 101.77   -28 LegendNANA
06:00 -24.6 -27.1 80 4 13 24.1 101.80   -34 LegendNANA
07:00 -26.1 -28.7 79 4 12 24.1 101.84   -35 Mainly Clear
08:00 -23.9 -26.4 80 8 9 24.1 101.90   -31 LegendNANA
09:00 -22.2 -24.6 82 9 15 24.1 101.87   -32 LegendNANA
10:00 -19.8 -22.3 81 5 8 24.1 101.88   -26 Clear
11:00 -17.2 -20.6 75 9 10 24.1 101.87   -24 LegendNANA
12:00 -14.8 -19.5 68 4 7 24.1 101.81   -20 LegendNANA
13:00 -12.8 -18.6 62 7 11 24.1 101.67   -19 Mostly Cloudy
14:00 -11.2 -17.7 59 8 8 24.1 101.57   -16 LegendNANA
15:00 -10.6 -16.5 63 9 12 24.1 101.48   -17 LegendNANA
16:00 -10.7 -16.2 64 7 11 24.1 101.44   -16 Mostly Cloudy
17:00 -10.5 -15.8 65 8 9 24.1 101.37   -15 LegendNANA
18:00 -9.8 -15.3 65 7 11 24.1 101.37   -15 LegendNANA
19:00 -10.7 -15.6 67 5 11 24.1 101.33   -16 Cloudy
20:00 -10.8 -15.3 70 6 11 16.1 101.19   -17 Snow
21:00 -10.7 -14.4 74 6 14 9.7 101.01   -17 Snow
22:00 -10.9 -13.5 81 5 13 9.7 100.91   -17 Snow
23:00 -10.8 -12.9 84 5 16 2.4 100.80   -18 Snow

Notes on Data Quality.

Legend

  • E = Estimated
  • M = Missing
  • NA = Not Available*
  • [empty] = Indicates an unobserved value
Date modified: